IU1INZ-13 Weather Reports


Display with metric or nautical units.
time (UTC)temp
F
wind
direction
speed
MPH
gust
MPH
rain 1hr
in
rain 24hr
in
rain mn
in
humidity
%
barometer
mb
20260508003036 57 0 0.0 0.0 0.00 0.00 0.00 82 1014.5
20260508001538 57 0 0.0 0.0 0.00 0.00 0.00 82 1014.6
20260508000035 57 0 0.0 0.0 0.00 0.00 0.00 82 1014.7
20260507234533 57 0 0.0 0.0 0.00 0.00 0.00 81 1014.8
20260507233040 57 0 0.0 1.0 0.00 0.00 0.00 80 1014.8
20260507231544 58 0 0.0 0.0 0.00 0.00 0.00 77 1014.9
20260507230043 59 34 1.0 2.0 0.00 0.00 0.00 75 1014.7
20260507224534 59 37 1.0 2.0 0.00 0.00 0.00 77 1014.5
20260507223035 58 0 0.0 0.0 0.00 0.00 0.00 78 1014.6
20260507221532 58 0 0.0 2.0 0.00 0.00 0.00 78 1014.5
20260507220032 58 327 1.0 3.0 0.00 0.00 0.00 77 1014.3
20260507214532 58 0 0.0 2.0 0.00 0.00 0.00 78 1014.4
20260507213032 59 327 0.0 4.0 0.00 0.00 0.00 78 1014.3
20260507211539 59 284 0.0 4.0 0.00 0.00 0.00 77 1014.4
20260507210036 60 0 0.0 3.0 0.00 0.00 0.00 76 1014.3
20260507204532 62 0 1.0 6.0 0.00 0.00 0.00 70 1014.3
20260507203036 63 324 2.0 4.0 0.00 0.00 0.00 68 1014.1
20260507201529 63 54 2.0 6.0 0.00 0.00 0.00 68 1014.0
20260507200030 64 48 2.0 4.0 0.00 0.00 0.00 67 1013.8
20260507194533 64 30 3.0 5.0 0.00 0.00 0.00 66 1013.6
20260507193036 65 57 1.0 3.0 0.00 0.00 0.00 64 1013.4
20260507191533 65 0 0.0 0.0 0.00 0.00 0.00 63 1013.2
20260507190031 66 72 0.0 2.0 0.00 0.00 0.00 62 1013.0
20260507184531 66 0 0.0 3.0 0.00 0.00 0.00 60 1012.8
20260507183043 66 65 1.0 3.0 0.00 0.00 0.00 60 1012.6
20260507181539 67 58 2.0 3.0 0.00 0.00 0.00 56 1012.5
20260507180033 67 64 2.0 4.0 0.00 0.00 0.00 55 1012.4
20260507174532 67 73 2.0 5.0 0.00 0.00 0.00 55 1012.4
20260507173031 67 69 2.0 4.0 0.00 0.00 0.00 53 1012.5
20260507171532 68 71 2.0 3.0 0.00 0.00 0.00 53 1012.2
20260507170032 69 64 0.0 2.0 0.00 0.00 0.00 53 1012.2
20260507164536 69 209 1.0 3.0 0.00 0.00 0.00 51 1012.3
20260507163045 69 66 3.0 6.0 0.00 0.00 0.00 52 1012.2
20260507161541 69 63 1.0 4.0 0.00 0.00 0.00 52 1012.3
20260507160047 69 58 3.0 5.0 0.00 0.00 0.00 52 1012.2
20260507154533 70 89 2.0 6.0 0.00 0.00 0.00 51 1012.2
20260507153044 69 216 0.0 5.0 0.00 0.00 0.00 51 1012.1
20260507151538 70 58 3.0 6.0 0.00 0.00 0.00 49 1012.1
20260507150035 70 58 4.0 7.0 0.00 0.00 0.00 49 1012.2
20260507144535 69 93 2.0 5.0 0.00 0.00 0.00 50 1012.2
20260507143043 70 228 2.0 5.0 0.00 0.00 0.00 50 1012.3
20260507141542 68 74 2.0 5.0 0.00 0.00 0.00 51 1012.5
20260507140035 69 82 0.0 4.0 0.00 0.00 0.00 49 1012.7
20260507134541 68 26 2.0 5.0 0.00 0.00 0.00 52 1012.6
20260507133033 69 162 3.0 9.0 0.00 0.00 0.00 51 1012.9
20260507131534 69 51 2.0 6.0 0.00 0.00 0.00 49 1013.0
20260507130032 67 83 0.0 5.0 0.00 0.00 0.00 53 1013.1
20260507124546 67 353 2.0 8.0 0.00 0.00 0.00 54 1013.2
20260507123033 66 60 1.0 5.0 0.00 0.00 0.00 55 1013.3
20260507121534 66 259 1.0 3.0 0.00 0.00 0.00 58 1013.4
20260507120032 66 76 2.0 6.0 0.00 0.00 0.00 57 1013.5
20260507114531 66 59 3.0 8.0 0.00 0.00 0.00 56 1013.6
20260507113035 66 78 3.0 9.0 0.00 0.00 0.00 57 1013.7
20260507111531 66 248 1.0 7.0 0.00 0.00 0.00 56 1013.9
20260507110036 66 255 1.0 4.0 0.00 0.00 0.00 57 1014.0
20260507104530 65 255 2.0 7.0 0.00 0.00 0.00 58 1014.1
20260507103033 65 203 4.0 7.0 0.00 0.00 0.00 60 1014.2
20260507101535 64 66 1.0 7.0 0.00 0.00 0.00 62 1014.3
20260507100037 65 195 1.0 5.0 0.00 0.00 0.00 62 1014.2
20260507094531 64 142 2.0 7.0 0.00 0.00 0.00 63 1014.2
20260507093038 63 153 4.0 7.0 0.00 0.00 0.00 65 1014.3
20260507091539 62 189 4.0 7.0 0.00 0.00 0.00 65 1014.2
20260507090034 61 165 2.0 6.0 0.00 0.00 0.00 68 1014.3
20260507084535 62 212 2.0 5.0 0.00 0.22 0.00 68 1014.1
20260507083030 60 162 1.0 5.0 0.00 0.22 0.00 70 1014.1
20260507081531 61 136 1.0 5.0 0.00 0.22 0.00 70 1014.2
20260507080031 60 189 2.0 5.0 0.00 0.22 0.00 71 1014.0
20260507074537 60 181 2.0 5.0 0.00 0.30 0.00 68 1014.0
20260507073039 61 0 1.0 3.0 0.00 0.30 0.00 68 1014.0
20260507071535 60 0 0.0 1.0 0.00 0.30 0.00 72 1013.9
20260507070035 59 0 0.0 2.0 0.00 0.30 0.00 72 1013.9
20260507064531 59 195 0.0 2.0 0.00 0.45 0.00 73 1013.8
20260507063048 58 0 0.0 2.0 0.00 0.45 0.00 75 1013.7
20260507061535 56 254 0.0 2.0 0.00 0.45 0.00 78 1013.6
20260507060042 53 0 0.0 2.0 0.00 0.45 0.00 83 1013.5
20260507054530 52 260 1.0 2.0 0.00 0.67 0.00 85 1013.5
20260507053032 51 0 0.0 0.0 0.00 0.67 0.00 87 1013.4
20260507051535 51 0 0.0 0.0 0.00 0.67 0.00 86 1013.2
20260507050036 51 0 0.0 0.0 0.00 0.67 0.00 86 1013.0
20260507044542 51 0 0.0 2.0 0.00 0.73 0.00 86 1012.9
20260507043030 51 207 1.0 3.0 0.00 0.73 0.00 86 1012.6
20260507041531 51 262 0.0 1.0 0.00 0.73 0.00 86 1012.3
20260507040035 52 0 0.0 0.0 0.00 0.73 0.00 85 1012.1
20260507034537 52 290 0.0 2.0 0.00 0.75 0.00 86 1012.0
20260507033032 52 0 0.0 2.0 0.00 0.75 0.00 87 1012.1
20260507031532 52 292 1.0 4.0 0.00 0.75 0.00 87 1012.0
20260507030033 51 302 1.0 2.0 0.00 0.75 0.00 88 1012.0
20260507024532 51 0 0.0 1.0 0.00 0.75 0.00 87 1012.1
20260507023035 52 0 0.0 1.0 0.00 0.75 0.00 87 1012.1
20260507021532 52 0 0.0 2.0 0.00 0.75 0.00 86 1012.2
20260507020041 53 288 1.0 4.0 0.00 0.75 0.00 84 1012.2
20260507014530 54 0 1.0 5.0 0.00 0.77 0.00 84 1012.0
20260507013046 53 0 0.0 3.0 0.00 0.77 0.00 85 1012.0
20260507011534 53 0 0.0 0.0 0.00 0.77 0.00 84 1012.1
20260507010036 54 46 1.0 4.0 0.00 0.77 0.00 83 1012.0
20260507004532 54 58 4.0 7.0 0.00 0.81 0.00 81 1011.8